Preview of NWS' New Version of Forecast
This preview is not operational and should not be used for support decisions.
Latest weather observations around

Russellville, Russellville Regional Airport (KRUE)

Using English Units (Switch to International System of Units)
Date/ Time (CDT) Wind (mph) Vis. (mi) Weather Sky Cond. Temp (°F) Rel. Humidity Wind Chill (°F) Heat Index (°F) Pressure Precip. (in)
Air Dwpt 6 hour Altimeter (inHg) Sea level (inHg) 1 hr 3 hr 6 hr
Max Min
Apr 25 09:53 WNW 9 10 Mostly Cloudy FEW060 SCT100 BKN120 61 49     64%     30.09 30.08      
Apr 25 07:53 Calm 10 Clear CLR 56 52     87%     30.07 30.06      
Apr 25 06:53 Calm 6 Fog/Mist CLR 48 48     100%     30.05 30.03      
Apr 25 05:53 Calm 8 Clear CLR 49 48     97%     30.02 30      
Apr 25 04:53 Calm 9 Clear CLR 50 49     96%     30.03 30.01      
Apr 25 03:53 Calm 10 Clear CLR 51 50     96%     30.04 30.02      
Apr 25 02:53 Calm 10 Clear CLR 51 50     96%     30.05 30.03      
Apr 25 01:53 Calm 10 Clear CLR 53 50     89%     30.06 30.04      
Apr 25 00:53 Calm 10 Clear CLR 54 50     86%     30.05 30.04      
Apr 24 22:53 Calm 10 Clear CLR 56 49     77%     30.03 30.02      
Apr 24 21:53 Calm 10 Clear CLR 59 49     69%     30.02 30.01      
Apr 24 20:53 Calm 10 Clear CLR 63 51     65%     30.01 29.99      
Apr 24 19:53 NE 3 10 Clear CLR 68 47     47%     29.98 29.96      
Apr 24 18:53 N 6 10 Clear CLR 79 36     21%   78 29.96 29.95      
Apr 24 17:53 NNW 10 10 Clear CLR 81 37     21%   80 29.96 29.94      
Apr 24 16:53 W 11 10 Clear CLR 80 40     24%   79 29.95 29.93      
Apr 24 15:53 W 11 10 Clear CLR 80 42     26%   79 29.96 29.94      
Apr 24 14:53 3 10 Clear CLR 78 43     29%   77 29.98 29.96      
Apr 24 13:53 WSW 7 10 Clear CLR 77 50     39%   76 29.99 29.98      
Apr 24 12:53 6 10 Clear CLR 73 51     46%   72 30.01 30      
Apr 24 10:53 WNW 8 10 Clear CLR 68 51     55%     30.05 30.03      
Apr 24 09:53 WNW 6 10 Clear CLR 65 53     65%     30.06 30.04      
Apr 24 08:53 NNW 7 10 Clear CLR 60 52     75%     30.06 30.04      
Apr 24 07:53 N 5 10 Clear CLR 56 52     87%     30.05 30.03      
Apr 24 06:53 Calm 4 Fog/Mist CLR 47 47     100%     30.04 30.02      
Apr 24 05:53 Calm 3 Fog/Mist CLR 48 47     96%     30 29.99      
Apr 24 05:51 Calm 3 Fog/Mist CLR 46 46     100%     30        
Apr 24 05:32 Calm 2.5 Fog/Mist CLR 48 47     96%     30        
Apr 24 04:53 Calm 3 Fog/Mist CLR 48 47     96%     29.99 29.98      
Apr 24 04:49 Calm 3 Fog/Mist CLR 48 48     100%     29.99        
Apr 24 04:24 Calm 1.75 Fog/Mist CLR 48 48     100%     29.99        
Apr 24 03:53 Calm 6 Fog/Mist CLR 48 48     100%     29.99 29.98      
Apr 24 00:53 Calm 10 Clear CLR 50 50     100%     29.97 29.96      
Apr 23 23:53 Calm 10 Clear CLR 52 51     97%     29.97 29.96      
Apr 23 22:53 Calm 10 Clear CLR 54 51     90%     29.97 29.95      
Apr 23 21:53 N 3 10 Clear CLR 62 50     65%     29.96 29.95      
Apr 23 20:53 NNE 3 10 Cloudy OVC070 63 50     63%     29.95 29.93      
Apr 23 19:53 NNE 9 10 Cloudy OVC075 66 50     56%     29.93 29.91      
Apr 23 18:53 NNW 6 10 Cloudy OVC075 68 51     55%     29.9 29.89      
Apr 23 17:53 NW 6 10 Cloudy OVC065 68 52     57%     29.9 29.88      
Apr 23 16:53 WNW 8 10 Cloudy OVC060 67 53     61%     29.89 29.87      
Apr 23 15:53 WNW 11 10 Cloudy OVC048 67 53     61%     29.89 29.87      
Apr 23 14:53 W 9 10 Cloudy FEW037 OVC055 66 55     68%     29.9 29.88      
Apr 23 13:53   10 Cloudy SCT036 OVC044 65 55     70%     29.91 29.9      
Apr 23 12:53 W 11 10 Cloudy BKN034 OVC043 65 55     70%     29.92 29.9      
Apr 23 11:53 NNW 10 10 Mostly Cloudy SCT028 BKN034 66 54     65%     29.93 29.91      
Apr 23 10:53 NNW 8 10 Cloudy BKN023 OVC030 63 54     72%     29.94 29.92      
Apr 23 09:53 WNW 8 10 Cloudy OVC019 59 54     83%     29.94 29.93      
Apr 23 08:53 NW 7 10 Cloudy OVC025 58 53     84%     29.93 29.92      
Apr 23 07:53 WNW 9 10 Cloudy OVC020 56 53     90%     29.93 29.92      
Apr 23 07:36 WNW 8 10 Cloudy BKN021 BKN075 OVC090 56 52     87%     29.93        
Apr 23 06:53 NW 7 10 Cloudy SCT020 BKN039 OVC055 55 52     89%     29.91 29.89      
Apr 23 04:53 WNW 5 10 Cloudy FEW025 OVC048 54 53     97%     29.89 29.87      
Apr 23 04:08 WNW 7 10 Partly Cloudy FEW007 SCT029 SCT050 54 53     97%     29.88        
Apr 23 03:53 WNW 8 10 Mostly Cloudy SCT007 BKN029 54 53     97%     29.88 29.87      
Apr 23 02:53 WNW 10 10 Cloudy BKN007 OVC033 54 53     97%     29.89 29.88      
Apr 23 01:53 WNW 7 10 Cloudy OVC008 54 53     97%     29.91 29.89      
Apr 23 00:53 WNW 3 10 Cloudy OVC009 54 53     97%     29.91 29.9     0
Apr 22 23:53 W 5 10 Cloudy OVC008 54 53     97%     29.91 29.9      
Apr 22 21:53 WNW 6 10 Cloudy OVC009 54 53     97%     29.93 29.91   0  
Apr 22 20:53 WNW 6 10 Cloudy OVC009 54 53     97%     29.93 29.91 0    
Apr 22 20:39 W 6 10 Cloudy OVC009 54 53     97%     29.93   0    
Apr 22 20:12 W 9 10 Cloudy OVC010 54 52     93%     29.92   0    
Apr 22 19:53 W 7 10 Cloudy OVC009 54 52     93%     29.92 29.9 0    
Apr 22 19:51 W 8 10 Cloudy OVC009 54 52     94%     29.92   0    
Apr 22 18:53 WNW 9 8 Light Rain OVC012 54 52     93%     29.92 29.9 0   0
Apr 22 18:22 W 14 10 Cloudy OVC014 55 51     86%     29.92        
Apr 22 17:53 WNW 10 10 Cloudy OVC017 56 51     84%     29.91 29.89      
Apr 22 16:53 NW 9 10 Cloudy OVC020 57 52     83%     29.9 29.88 0    
Apr 22 15:53 W 13 10 Cloudy FEW015 OVC024 58 53     84%     29.89 29.88      
Apr 22 15:32 W 7 10 Cloudy SCT014 OVC024 57 53     87%     29.9        
Apr 22 15:08 W 13 10 Cloudy OVC014 57 53     87%     29.91        
Apr 22 14:53 WNW 8 10 Cloudy BKN015 OVC030 58 53     84%     29.91 29.9      
Apr 22 14:40 NW 9 10 Cloudy BKN016 OVC030 59 53     81%     29.92        
Apr 22 13:53 NW 10 10 Cloudy OVC012 59 54     83%     29.92 29.91      
Apr 22 12:53 NW 9 10 Cloudy OVC013 60 55     83%     29.92 29.91     0
Apr 22 11:53 NW 8 10 Cloudy BKN011 OVC065 60 56     86%     29.93 29.92      
Apr 22 11:33 W 11 10 Cloudy OVC010 58 55     90%     29.94        
Apr 22 11:15 W 10 10 Cloudy BKN009 BKN021 OVC029 58 56     93%     29.94        
Apr 22 11:00 WNW 9 10 Cloudy BKN011 BKN022 OVC028 57 56     96%     29.94        
Jun 12 05:53 SSE 3 10 Clear CLR 71 69     93%   72 29.98 29.96      
Jun 11 01:53 5 10 Clear   72 64     76%   72 29.96 29.94      
Jun 10 16:53 S 8 10 Cloudy FEW047 OVC060 83 66     57%   85 29.91 29.89      
Jun 09 15:53 SSW 5 10 Clear CLR 80 56     44%   80 29.92 29.9      
Jun 08 07:53 Calm 10 Clear CLR 64 57     78%     30.04 30.02      
Jun 07 10:53 NNE 6 10 Clear CLR 77 56     48%   77 30.02 29.99      
Jun 06 06:42 Calm 1.5 Fog/Mist OVC002 68 67     96%     29.85        
Jun 06 04:53 Calm 9 Clear CLR 67 66     97%     29.83 29.81      
Jun 06 02:53 Calm 6 Fog/Mist CLR 68 67     96%     29.82 29.8      
Jun 06 01:22 WNW 3 1.5 Fog/Mist FEW002 68 67     96%     29.81        
Jun 05 23:18 Calm 2.5 Fog/Mist CLR 69 68     96%     29.82        
Jun 05 19:53 Calm 10 Clear CLR 74 71     91%   75 29.78 29.75      
Jun 05 15:00 ENE 8 1.75 Heavy Rain and Fog/Mist FEW029 BKN080 BKN090 75 71     88%   76 29.77   0